Regional Weather Roundup
Issued by NWS

Home | Current Version | Previous Version | Text Only | Print | Product List | Glossary On
Versions: 1 2 3 4 5 6 7 8 9 10 11 12 13 14 15 16 17 18 19 20 21 22 23 24 25 26 27 28 29 30 31 32 33 34 35 36 37 38 39 40 41 42 43 44 45 46 47 48 49 50
026
ASUS44 KLIX 271601
RWRLA
LOUISIANA WEATHER ROUNDUP
NATIONAL WEATHER SERVICE NEW ORLEANS LA
1100 AM CDT WED AUG 27 2014

NOTE: "FAIR" INDICATES FEW OR NO CLOUDS BELOW 12,000 FEET WITH NO
      SIGNIFICANT WEATHER AND/OR OBSTRUCTIONS TO VISIBILITY.
      SKY/WX - SKY CONDITION AND SIGNIFICANT WEATHER.
      TMP - AIR TEMPERATURE.    DP   - DEWPOINT TEMPERATURE.
      RH  - RELATIVE HUMIDITY.  PRES - PRESSURE.
      HX  - HEAT INDEX.         WCI  - WIND CHILL INDEX.

*  THESE STATIONS ARE NOT NWS OR FAA STATIONS AND ARE NOT UNDER
   NWS QUALITY CONTROL.

LAZ040-048-061>063-065-066-069-271700-
SOUTHEAST LOUISIANA

CITY           SKY/WX    TMP DP  RH WIND       PRES   REMARKS
N.O. AUDUBON     N/A     89  73  59 MISG        N/A  HX  96
N.O. INTL ARPT PTSUNNY   86  74  67 NE12      30.03R
N.O. LAKEFRONT MOSUNNY   87  75  67 NE10      30.04R HX  96
N.O. DOWNTOWN* FAIR      88  72  58 NE6       30.04R
SLIDELL        MOSUNNY   89  73  59 N5        30.03R HX  97
BATON ROUGE    SUNNY     88  72  58 E8        30.04R
BOOTHVILLE     MOSUNNY   88  76  67 E14G20    30.03R HX  99
BELLE CHASSE   PTSUNNY   88  74  63 NE8       30.02R HX  96
BOGALUSA*      FAIR      89  69  51 NE5       30.06S
GALLIANO*      NOT AVBL
NEW ROADS*     FAIR      87  72  60 E9        30.04R
GONZALES*      FAIR      86  75  68 NE9       30.02S
HAMMOND*       NOT AVBL
HOUMA*         MOSUNNY   90  73  58 NE14      30.02R HX  98
PORT FOURCHON* PTSUNNY   84  75  74 E8        30.03R

$$

LAZ041-044-053-054-271700-
SOUTHWEST LOUISIANA

CITY           SKY/WX    TMP DP  RH WIND       PRES   REMARKS
LAKE CHARLES   MOSUNNY   86  74  67 E13       30.01R
LAFAYETTE      MOSUNNY   86  74  67 E7        30.02R
PATTERSON      PTSUNNY   86  79  79 NE10      30.04S HX  99
SALT POINT       N/A     88  77  69 VRB5      30.00R HX 100
NEW IBERIA     MOSUNNY   88  76  67 E9        30.02S HX  99
CHENAULT AIRPK NOT AVBL

$$

LAZ027-028-271700-
CENTRAL LOUISIANA

CITY           SKY/WX    TMP DP  RH WIND       PRES   REMARKS
FORT POLK      PTSUNNY   87  68  52 E8        30.05R
ALEXANDRIA INT MOSUNNY   88  68  51 NE7       30.03R
ALEXANDRIA     PTSUNNY   87  71  58 VRB3      30.05R

$$

LAZ001-002-271700-
NORTHWEST LOUISIANA

CITY           SKY/WX    TMP DP  RH WIND       PRES   REMARKS
SHREVEPORT     MOSUNNY   89  62  40 VRB6      30.07R
BARKSDALE AFB  MOSUNNY   89  62  40 VRB5      30.08R
DTN SHREVEPORT MOSUNNY   88  66  48 N3        30.08R

$$

LAZ014-016-271700-
NORTHEAST LOUISIANA

CITY           SKY/WX    TMP DP  RH WIND       PRES   REMARKS
MONROE         SUNNY     88  66  48 NE6       30.08R
TALLULAH       SUNNY     89  69  51 E8        30.07R

$$




USA.gov is the U.S. government's official web portal to all federal, state and local government web resources and services.